www.pogodaiklimat.ru

Погода и климат >> Архив погоды >> Бразилия >> Токантинс >> Императрис


ПОГОДА в Императрисе

  • Прогноз погоды в Императрисе
  • Монитор погоды в Императрисе

АРХИВ ПОГОДЫ в Императрисе

Время (UTC), дата Ветер
(напр.,м/с)
 
Видим.   Явления Облачность Т
(С)
Тd
(С)
f
(%)
Тe
(С)
Тes
(С)
Комфортность P
(гПа)
Po
(гПа)
Тmin
(С)
Tmax
(С)
R
(мм)
R24
(мм)
S
(см)
18 12.04 Ю 1
{2}
н/о н/о +32.6 +23.5 59 +44 +44 опасность
перегрева
1008.9 995.7
19 12.04 штиль 0
{3}
н/о н/о +28.6 +21.7 66 +37 +37 очень
душно
1008.7 995.3
20 12.04 В 1
{3}
н/о н/о +28.8 +22.1 67 +37 +37 очень
душно
1008.5 995.1
21 12.04 штиль 0
{1}
н/о н/о +27.7 +21.9 71 +36 +36 очень
душно
1008.8 995.4
22 12.04 штиль 0
{1}
н/о н/о +26.7 +22.0 75 +34 +34 очень
душно
1009.4 995.9
23 12.04 штиль 0 н/о н/о +26.3 +22.4 79 +34 +34 очень
душно
1010.5 997.0
00 13.04 штиль 0 н/о н/о +26.0 +22.5 81 +34 +34 очень
душно
1011.9 998.4
01 13.04 штиль 0
{1}
н/о н/о +25.6 +22.4 83 +34 +34 очень
душно
1012.3 998.7
02 13.04 штиль 0 н/о н/о +25.4 +22.5 84 +33 +33 очень
душно
1012.3 998.7
03 13.04 штиль 0 н/о н/о +24.9 +22.1 84 +32 +32 очень
душно
1012.4 998.8
04 13.04 штиль 0 н/о н/о +24.7 +22.1 85 +32 +32 очень
душно
1011.7 998.1
05 13.04 штиль 0 н/о н/о +24.1 +21.6 86 +31 +31 очень
душно
1011.3 997.7
06 13.04 штиль 0 н/о н/о +24.3 +21.9 86 +31 +31 очень
душно
1011.2 997.6
07 13.04 штиль 0
{1}
н/о н/о +24.5 +22.2 87 +32 +32 очень
душно
1011.0 997.4 0.2
08 13.04 штиль 0 н/о н/о +24.5 +22.3 88 +32 +32 очень
душно
1011.2 997.6
09 13.04 штиль 0
{1}
н/о н/о +24.2 +22.1 88 +31 +31 очень
душно
1011.7 998.1
10 13.04 штиль 0 н/о н/о +25.0 +22.9 88 +33 +33 очень
душно
1012.1 998.5
11 13.04 С 1
{2}
н/о н/о +25.8 +23.4 87 +35 +35 очень
душно
1012.8 999.2
12 13.04 СВ 1
{1}
н/о н/о +26.2 +23.5 85 +36 +36 очень
душно
1013.2 999.6
13 13.04 штиль 0
{2}
н/о н/о +27.1 +23.9 83 +37 +37 очень
душно
1013.3 999.8
14 13.04 штиль 0
{1}
н/о н/о +27.7 +24.1 81 +39 +39 очень
душно
1013.4 999.9
15 13.04 штиль 0
{1}
н/о н/о +28.0 +23.8 78 +39 +39 очень
душно
1012.7 999.2
16 13.04 штиль 0
{1}
н/о н/о +30.0 +25.5 77 +44 +44 опасность
перегрева
1011.2 997.8 1
17 13.04 ЮВ 1
{2}
н/о н/о +30.7 +25.0 72 +44 +44 опасность
перегрева
1009.5 996.2
18 13.04 З 1
{2}
н/о н/о +31.5 +24.5 66 +44 +44 опасность
перегрева
1008.1 994.8
19 13.04 Ю 1
{2}
н/о н/о +30.4 +23.7 67 +41 +41 опасность
перегрева
1007.7 994.4
20 13.04 штиль 0
{2}
н/о н/о +29.7 +23.3 69 +40 +40 очень
душно
1008.1 994.8
21 13.04 штиль 0
{2}
н/о н/о +28.3 +22.8 72 +38 +38 очень
душно
1009.1 995.7
22 13.04 В 1
{2}
н/о н/о +27.6 +22.9 76 +37 +37 очень
душно
1009.7 996.3
23 13.04 СВ 1
{2}
н/о н/о +26.9 +22.6 77 +35 +35 очень
душно
1011.1 997.6
00 14.04 С 1
{2}
н/о н/о +26.4 +22.4 79 +35 +35 очень
душно
1011.7 998.2
01 14.04 штиль 0
{2}
н/о н/о +26.0 +22.2 80 +34 +34 очень
душно
1012.5 998.9
02 14.04 штиль 0
{1}
н/о н/о +25.8 +22.2 81 +34 +34 очень
душно
1013.1 999.5
03 14.04 штиль 0
{3}
н/о н/о +24.1 +21.0 83 +30 +30 очень
душно
1012.7 999.1 5
04 14.04 штиль 0
{1}
н/о н/о +24.1 +21.3 84 +30 +30 очень
душно
1012.1 998.5 3
05 14.04 штиль 0
{1}
н/о н/о +24.1 +21.5 85 +31 +31 очень
душно
1011.5 997.9 0.2
06 14.04 штиль 0
{1}
н/о н/о +24.1 +21.7 86 +31 +31 очень
душно
1011.3 997.7
07 14.04 ЮЗ 1
{1}
н/о н/о +23.8 +21.6 87 +30 +30 очень
душно
1011.0 997.4 3
08 14.04 штиль 0
{1}
н/о н/о +23.9 +21.7 88 +31 +31 очень
душно
1010.7 997.1
09 14.04 штиль 0
{1}
н/о н/о +23.8 +21.7 88 +30 +30 очень
душно
1011.0 997.4
10 14.04 штиль 0 н/о н/о +24.4 +22.3 88 +32 +32 очень
душно
1011.5 997.9
11 14.04 штиль 0
{1}
н/о н/о +25.0 +23.0 89 +33 +33 очень
душно
1012.3 998.7
12 14.04 СВ 1
{1}
н/о н/о +26.1 +23.8 87 +36 +36 очень
душно
1013.0 999.4
13 14.04 С 1
{2}
н/о н/о +28.0 +25.0 84 +40 +40 очень
душно
1013.7 1000.2
14 14.04 штиль 0
{2}
н/о н/о +28.9 +25.2 80 +42 +42 опасность
перегрева
1013.3 999.9
15 14.04 штиль 0
{1}
н/о н/о +30.2 +25.3 75 +44 +44 опасность
перегрева
1012.2 998.8
16 14.04 ЮЗ 1
{2}
н/о н/о +29.1 +23.9 74 +40 +40 очень
душно
1010.7 997.3
17 14.04 штиль 0
{4}
н/о н/о +24.4 +21.0 81 +31 +31 очень
душно
1009.9 996.3 17
18 14.04 Ю 1
{2}
н/о н/о +25.1 +22.2 84 +33 +33 очень
душно
1009.0 995.5
19 14.04 штиль 0
{1}
н/о н/о +26.9 +23.8 83 +37 +37 очень
душно
1008.8 995.3
20 14.04 штиль 0
{1}
н/о н/о +26.8 +23.6 83 +37 +37 очень
душно
1009.3 995.8
21 14.04 С 1
{3}
н/о н/о +26.2 +23.0 83 +35 +35 очень
душно
1010.7 997.2
22 14.04 С 1
{2}
н/о н/о +25.1 +22.0 83 +32 +32 очень
душно
1011.5 997.9 0.4
01 15.04 штиль 0
{1}
н/о н/о +22.4 +20.3 88 +29 +29 очень
душно
1013.9 1000.2 4
02 15.04 штиль 0
{1}
н/о н/о +22.7 +20.6 88 +30 +30 очень
душно
1013.8 1000.1 0.4
03 15.04 штиль 0
{1}
н/о н/о +22.8 +20.8 88 +30 +30 очень
душно
1013.4 999.7
04 15.04 штиль 0 н/о н/о +22.6 +20.7 89 +29 +29 очень
душно
1012.7 999.0
05 15.04 штиль 0 н/о н/о +22.6 +20.7 89 +29 +29 очень
душно
1012.0 998.3
06 15.04 штиль 0 н/о н/о +22.5 +20.6 89 +29 +29 очень
душно
1011.8 998.1
07 15.04 штиль 0 н/о н/о +22.5 +20.7 90 +29 +29 очень
душно
1011.8 998.1
08 15.04 штиль 0 н/о н/о +22.4 +20.6 90 +29 +29 очень
душно
1012.1 998.4
09 15.04 штиль 0
{1}
н/о н/о +22.1 +20.3 90 +28 +28 душно 1012.5 998.8
10 15.04 штиль 0 н/о н/о +22.7 +21.0 90 +30 +30 очень
душно
1012.9 999.2
11 15.04 штиль 0
{1}
н/о н/о +23.6 +21.9 90 +30 +30 очень
душно
1013.9 1000.2
12 15.04 штиль 0
{1}
н/о н/о +24.7 +22.9 90 +33 +33 очень
душно
1014.4 1000.8
13 15.04 штиль 0
{1}
н/о н/о +26.0 +23.7 87 +35 +35 очень
душно
1014.5 1000.9
14 15.04 штиль 0
{2}
н/о н/о +28.8 +25.6 83 +43 +43 опасность
перегрева
1013.6 1000.2
15 15.04 В 1
{2}
н/о н/о +29.7 +25.3 77 +43 +43 опасность
перегрева
1012.7 999.3
16 15.04 В 1
{2}
н/о н/о +31.8 +26.2 72 +48 +48 опасность
перегрева
1011.6 998.3
17 15.04 В 1
{2}
н/о н/о +32.5 +25.7 67 +47 +47 опасность
перегрева
1010.3 997.1
18 15.04 В 1
{3}
н/о н/о +31.8 +23.9 63 +43 +43 опасность
перегрева
1009.3 996.0
19 15.04 ЮЗ 1
{3}
н/о н/о +27.0 +21.6 72 +34 +34 очень
душно
1009.2 995.7 0.6
20 15.04 штиль 0
{1}
н/о н/о +28.7 +23.9 75 +40 +40 очень
душно
1008.6 995.2
21 15.04 штиль 0
{1}
н/о н/о +27.0 +22.5 76 +35 +35 очень
душно
1008.9 995.4
22 15.04 штиль 0 н/о н/о +26.6 +22.7 79 +35 +35 очень
душно
1009.8 996.3
23 15.04 штиль 0 н/о н/о +26.4 +22.9 81 +35 +35 очень
душно
1010.8 997.3
00 16.04 штиль 0 н/о н/о +25.6 +22.4 83 +34 +34 очень
душно
1011.6 998.0
01 16.04 штиль 0 н/о н/о +25.3 +22.3 83 +33 +33 очень
душно
1012.5 998.9
02 16.04 штиль 0
{1}
н/о н/о +25.3 +22.5 84 +33 +33 очень
душно
1012.9 999.3
03 16.04 штиль 0
{1}
н/о н/о +25.1 +22.4 85 +33 +33 очень
душно
1012.9 999.3
04 16.04 штиль 0 н/о н/о +24.6 +22.1 86 +32 +32 очень
душно
1012.4 998.8
05 16.04 штиль 0 н/о н/о +24.9 +22.4 86 +33 +33 очень
душно
1011.9 998.3
06 16.04 штиль 0 н/о н/о +24.3 +22.0 87 +31 +31 очень
душно
1011.3 997.7
07 16.04 штиль 0
{1}
н/о н/о +24.1 +21.8 87 +31 +31 очень
душно
1011.3 997.7
08 16.04 штиль 0 н/о н/о +23.4 +21.2 87 +31 +31 очень
душно
1011.5 997.8
09 16.04 штиль 0 н/о н/о +23.2 +21.1 88 +31 +31 очень
душно
1012.2 998.5
10 16.04 штиль 0 н/о н/о +24.5 +22.4 88 +32 +32 очень
душно
1012.9 999.3
11 16.04 штиль 0
{1}
н/о н/о +26.3 +23.8 86 +36 +36 очень
душно
1013.4 999.8
12 16.04 штиль 0
{1}
н/о н/о +28.9 +25.5 82 +43 +43 опасность
перегрева
1013.6 1000.2
13 16.04
{2}
н/о н/о +29.7 +25.2 77 1013.9 1000.5
14 16.04 СЗ 1
{2}
н/о н/о +30.4 +24.8 72 +43 +43 опасность
перегрева
1013.3 999.9
15 16.04 штиль 0
{2}
н/о н/о +30.9 +24.3 68 +43 +43 опасность
перегрева
1012.5 999.2
16 16.04 штиль 0
{2}
н/о н/о +31.5 +24.2 65 +43 +43 опасность
перегрева
1011.4 998.1
17 16.04 Ю 2
{5}
н/о н/о +27.7 +20.6 65 +34 +34 очень
душно
1010.3 996.9
18 16.04 ЮЗ 1
{4}
н/о н/о +30.8 +24.1 68 +43 +43 опасность
перегрева
1008.8 995.5
19 16.04 Ю 1
{2}
н/о н/о +30.4 +23.5 67 +41 +41 опасность
перегрева
1008.4 995.1
20 16.04 Ю 1
{3}
н/о н/о +28.7 +22.3 68 +37 +37 очень
душно
1008.2 994.8
21 16.04 штиль 0
{2}
н/о н/о +27.7 +22.1 72 +36 +36 очень
душно
1009.1 995.7
22 16.04 В 1
{2}
н/о н/о +27.3 +21.8 72 +35 +35 очень
душно
1010.1 996.6
23 16.04 штиль 0
{2}
н/о н/о +26.6 +21.8 75 +34 +34 очень
душно
1011.1 997.6
00 17.04 штиль 0
{1}
н/о н/о +26.6 +22.2 77 +35 +35 очень
душно
1011.7 998.2
01 17.04 В 1
{1}
н/о н/о +26.3 +22.4 79 +34 +34 очень
душно
1012.2 998.7
02 17.04 штиль 0
{1}
н/о н/о +25.9 +22.1 80 +34 +34 очень
душно
1012.2 998.6
03 17.04 штиль 0
{1}
н/о н/о +25.6 +22.1 81 +33 +33 очень
душно
1012.2 998.6
04 17.04 штиль 0
{1}
н/о н/о +25.6 +22.3 82 +33 +33 очень
душно
1011.6 998.0
05 17.04 СВ 1
{4}
н/о н/о +25.0 +21.9 83 +32 +32 очень
душно
1011.4 997.8 2
06 17.04 СВ 1
{5}
н/о н/о +23.6 +21.0 85 +30 +30 очень
душно
1010.8 997.2 11
07 17.04 штиль 0
{2}
н/о н/о +23.6 +21.2 86 +30 +30 очень
душно
1010.3 996.7
08 17.04 штиль 0
{1}
н/о н/о +23.4 +21.1 87 +31 +31 очень
душно
1010.5 996.9
09 17.04 штиль 0
{1}
н/о н/о +23.4 +21.2 87 +31 +31 очень
душно
1011.0 997.3
10 17.04 СЗ 1
{2}
н/о н/о +23.9 +21.7 88 +31 +31 очень
душно
1012.4 998.8
11 17.04 СЗ 1
{2}
н/о н/о +25.2 +22.8 87 +33 +33 очень
душно
1013.3 999.7
12 17.04 СЗ 1
{2}
н/о н/о +26.9 +24.1 85 +37 +37 очень
душно
1014.0 1000.5
13 17.04 СЗ 1
{2}
н/о н/о +26.5 +23.3 83 +36 +36 очень
душно
1014.5 1000.9
14 17.04 штиль 0
{2}
н/о н/о +27.0 +23.4 81 +37 +37 очень
душно
1014.3 1000.8
15 17.04 СЗ 1
{2}
н/о н/о +30.0 +25.3 76 +44 +44 опасность
перегрева
1013.1 999.7
16 17.04 штиль 0
{2}
н/о н/о +30.9 +24.9 70 +44 +44 опасность
перегрева
1011.6 998.3
17 17.04 З 1
{2}
н/о н/о +32.0 +24.9 66 +45 +45 опасность
перегрева
1009.9 996.6
18 17.04 штиль 0
{2}
н/о н/о +32.2 +23.8 61 +44 +44 опасность
перегрева
1008.5 995.3
19 17.04 Ю 1
{2}
н/о н/о +30.7 +22.6 62 +40 +40 очень
душно
1008.2 994.9
20 17.04 штиль 0
{2}
н/о н/о +29.9 +22.4 64 +39 +39 очень
душно
1008.2 994.9
21 17.04 штиль 0
{1}
н/о н/о +28.6 +22.3 69 +37 +37 очень
душно
1009.0 995.6
22 17.04 штиль 0
{1}
н/о н/о +27.0 +21.7 73 +35 +35 очень
душно
1009.3 995.8
23 17.04 штиль 0
{1}
н/о н/о +26.6 +22.2 77 +35 +35 очень
душно
1010.5 997.0
00 18.04 штиль 0
{2}
н/о н/о +26.4 +22.5 79 +35 +35 очень
душно
1011.6 998.1
01 18.04 штиль 0
{1}
н/о н/о +25.7 +22.2 81 +33 +33 очень
душно
1012.4 998.8
02 18.04 штиль 0
{1}
н/о н/о +25.4 +22.2 82 +33 +33 очень
душно
1012.5 998.9
03 18.04 штиль 0 н/о н/о +24.9 +21.9 83 +32 +32 очень
душно
1012.1 998.5
04 18.04 штиль 0 н/о н/о +24.5 +21.7 84 +31 +31 очень
душно
1011.4 997.8
05 18.04 штиль 0 н/о н/о +24.3 +21.7 85 +31 +31 очень
душно
1010.8 997.2
06 18.04 штиль 0 н/о н/о +23.9 +21.4 86 +30 +30 очень
душно
1010.4 996.8
07 18.04 штиль 0 н/о н/о +23.8 +21.5 87 +30 +30 очень
душно
1010.0 996.4
08 18.04 штиль 0
{1}
н/о н/о +23.6 +21.3 87 +30 +30 очень
душно
1010.0 996.4
09 18.04 штиль 0
{1}
н/о н/о +23.4 +21.2 87 +31 +31 очень
душно
1010.5 996.9
10 18.04 штиль 0
{1}
н/о н/о +24.0 +21.9 88 +31 +31 очень
душно
1011.5 997.9
11 18.04 С 1
{2}
н/о н/о +26.4 +23.7 85 +36 +36 очень
душно
1012.4 998.9
12 18.04 С 1
{2}
н/о н/о +26.9 +23.6 82 +37 +37 очень
душно
1013.1 999.6
13 18.04 СЗ 1
{2}
н/о н/о +27.6 +23.8 80 +38 +38 очень
душно
1013.5 1000.0

 

Местоположение метеостанции Императрис (Токантинс, Бразилия): широта -5.55 долгота -47.67 высота над уровнем моря 128 м.

В архиве по умолчанию представлена погода в Императрисе за последнюю неделю. Архивные данные за месяц целиком и за предыдущие месяцы, начиная с января 2011 года, Вы можете получить, выбрав интересующий диапазон дат из раскрывающегося списка и нажав кнопку "Ввод!".


*Определитесь, кто Вы:
робот инопланетянин человек

Внимание! Время в таблицах - всемирное. Для получения местного времени необходимо прибавить поправку, которая равна -3 ч.

Смотрите также архив погоды в соседних городах и на ближайших метеорологических станциях:

Погода в Арагуатинсе (Токантинс, Бразилия) (51 км)
Погода в Рондон-ду-Паре (Мараньян, Бразилия) (96 км)
Погода в Эстрейту (Мараньян, Бразилия) (125 км)
Погода в Марабе (Пара, Бразилия) (165 км)
Погода в Гражау (Мараньян, Бразилия) (169 км)
Погода в Буритикупу (Мараньян, Бразилия) (192 км)
Погода в Марабе (Пара, Бразилия) (194 км)
Погода в Каролине (Мараньян, Бразилия) (199 км)
Погода в Каролине (Мараньян, Бразилия) (199 км)
Погода в Арагуаине (Токантинс, Бразилия) (200 км)

Пояснения к столбцам:

Ветер - указаны скорость ветра в м/с - средняя за 10 мин, порывы в срок и между сроками (в фигурных скобках) и направление, откуда дует ветер: С - северный, СВ - северо-восточный, В - восточный, ЮВ - юго-восточный, Ю - южный, ЮЗ - юго-западный, З - западный, СЗ - северо-западный.
Видимость - горизонтальная дальность видимости в метрах или километрах. При видимости от 1 до 10 км при отсутствии осадков обычно наблюдается дымка, при ухудшении видимости до 1 км и менее - туман. В сухую погоду видимость может ухудшаться дымом, пылью или мглою.
Явления - указаны атмосферные явления, наблюдавшиеся в срок или в последний час перед сроком; фигурными скобками обозначены явления, наблюдавшиеся между сроками (за 1-3 часа до срока); квадратными скобками обозначены град или гололедные отложения с указанием их диаметра в мм.
Облачность - указаны через наклонную черту общая и нижняя облачность в баллах и высота нижней границы облаков в метрах; квадратными скобками обозначены формы облаков: Ci - перистые, Cs - перисто-слоистые, Cc - перисто-кучевые, Ac - высококучевые, As - высокослоистые, Sc - слоисто-кучевые, Ns - слоисто-дождевые, Cu - кучевые, Cb - кучево-дождевые. Подробнее классификацию облаков см. в Атласе облаков (PDF).
T - Температура воздуха - температура, измеренная на высоте 2 м над землей.
Td - Температура точки росы - температура, при понижении до которой содержащийся в воздухе водяной пар достигнет насыщения.
f - Относительная влажность воздуха - влажноcть воздуха, измеренная на высоте 2 м над землей.
Te - Эффективная температура - температура, которую ощущает одетый по сезону человек в тени. Характеристика душности погоды. При расчете учитывается влияние влажности воздуха и скорости ветра на теплоощущения человека.
Tes - Эффективная температура на солнце - температура, которую ощущает человек, с поправкой на солнечный нагрев. Характеристика знойности погоды. Зависит от высоты солнца над горизонтом, облачности и скорости ветра. Ночью, в пасмурную погоду, а также при ветре 12 м/с и более поправка равна нулю.
P - Атмосферное давление - приведенное к уровню моря атмосферное давление.
Po - Атмосферное давление - измеренное на уровне метеостанции атмосферное давление.
Tmin - Минимальная температура - минимум температуры воздуха на высоте 2 м над землей.
Tmax - Максимальная температура - максимум температуры воздуха на высоте 2 м над землей.
R - Количество осадков - Количество выпавших осадков за период времени, мм. При наведении курсора мыши на число - период времени, за который выпало указанное количество осадков.
R24 - Количество осадков - Количество выпавших осадков за 24 часа, мм.
S - Снежный покров - Высота снежного покрова, см. При наведении курсора мыши на число - состояние снежного покрова и степень покрытия местности в баллах.